WA6MHA-15 Weather Reports


Display with metric or nautical units.
time (UTC)temp
F
wind
direction
speed
MPH
gust
MPH
rain 1hr
in
rain 24hr
in
rain mn
in
humidity
%
barometer
mb
20181017182036 76 90 4.0 6.0 0.00 0.00 0.00 24
20181017180523 76 229 2.0 7.0 0.00 0.00 0.00 26
20181017175616 76 196 1.0 8.0 0.00 0.00 0.00 26
20181017175312 76 215 0.0 7.0 0.00 0.00 0.00 28
20181017175010 77 67 2.0 5.0 0.00 0.00 0.00 28
20181017174406 76 296 3.0 7.0 0.00 0.00 0.00 29
20181017173157 75 275 0.0 4.0 0.00 0.00 0.00 31
20181017172856 74 165 0.0 6.0 0.00 0.00 0.00 33
20181017171948 74 196 3.0 5.0 0.00 0.00 0.00 33
20181017171646 75 217 0.0 5.0 0.00 0.00 0.00 32
20181017171343 75 244 4.0 6.0 0.00 0.00 0.00 31
20181017171040 75 234 2.0 5.0 0.00 0.00 0.00 31
20181017170740 75 264 0.0 5.0 0.00 0.00 0.00 30
20181017170438 75 274 4.0 3.0 0.00 0.00 0.00 30
20181017165528 75 206 0.0 6.0 0.00 0.00 0.00 29
20181017165226 75 153 2.0 6.0 0.00 0.00 0.00 29
20181017164924 75 254 3.0 3.0 0.00 0.00 0.00 28
20181017164622 76 298 3.0 3.0 0.00 0.00 0.00 30
20181017164319 76 315 0.0 2.0 0.00 0.00 0.00 28
20181017163109 75 275 0.0 4.0 0.00 0.00 0.00 29
20181017162902 75 279 2.0 0.0 0.00 0.00 0.00 29
20181017162806 75 279 2.0 0.0 0.00 0.00 0.00 29
20181017162203 73 60 0.0 0.0 0.00 0.00 0.00 30
20181017161559 73 60 0.0 0.0 0.00 0.00 0.00 33
20181017160952 71 60 0.0 0.0 0.00 0.00 0.00 34
20181017160649 71 60 0.0 0.0 0.00 0.00 0.00 36
20181017160505 70 60 0.0 1.0 0.00 0.00 0.00 36
20181017160346 70 60 0.0 1.0 0.00 0.00 0.00 36
20181017160125 69 60 0.0 1.0 0.00 0.00 0.00 36
20181017160045 69 60 0.0 1.0 0.00 0.00 0.00 36
20181017155441 68 140 1.0 0.0 0.00 0.00 0.00 38
20181017155138 68 37 0.0 0.0 0.00 0.00 0.00
20181017154230 66 37 0.0 0.0 0.00 0.00 0.00
20181017153927 66 37 0.0 5.0 0.00 0.00 0.00
20181017153722 66 37 0.0 5.0 0.00 0.00 0.00
20181017153624 66 37 0.0 5.0 0.00 0.00 0.00
20181017153410 66 37 1.0 6.0 0.00 0.00 0.00
20181017153322 66 37 1.0 6.0 0.00 0.00 0.00
20181017152716 64 343 5.0 7.0 0.00 0.00 0.00
20181017152216 63 16 0.0 0.0 0.00 0.00 0.00
20181017152110 63 16 0.0 0.0 0.00 0.00 0.00
20181017150556 62 295 3.0 4.0 0.00 0.00 0.00
20181017150338 61 278 0.0 1.0 0.00 0.00 0.00
20181017150254 61 278 0.0 1.0 0.00 0.00 0.00
20181017145950 61 101 0.0 3.0 0.00 0.00 0.00
20181017145748 59 9 0.0 0.0 0.00 0.00 0.00 44
20181017145736 58 9 0.0 0.0 0.00 0.00 0.00 44
20181017145715 60 9 0.0 0.0 0.00 0.00 0.00 44
20181017145704 58 9 0.0 0.0 0.00 0.00 0.00 44
20181017145648 59 9 0.0 0.0 0.00 0.00 0.00 44
20181017145643 60 9 0.0 0.0 0.00 0.00 0.00 44
20181017145611 61 157 0.0 6.0 0.00 0.00 0.00
20181017145601 58 9 0.0 0.0 0.00 0.00 0.00 45
20181017145540 61 157 0.0 6.0 0.00 0.00 0.00
20181017145527 59 9 0.0 0.0 0.00 0.00 0.00 43
20181017145515 59 9 0.0 0.0 0.00 0.00 0.00 44
20181017145508 60 9 0.0 0.0 0.00 0.00 0.00 44
20181017145438 61 157 0.0 6.0 0.00 0.00 0.00
20181017145422 59 9 0.0 0.0 0.00 0.00 0.00 43
20181017145414 59 9 0.0 0.0 0.00 0.00 0.00 44
20181017145408 60 9 0.0 0.0 0.00 0.00 0.00 44
20181017145352 58 9 0.0 0.0 0.00 0.00 0.00 45
20181017145344 61 157 0.0 6.0 0.00 0.00 0.00
20181017145334 60 9 0.0 0.0 0.00 0.00 0.00 44
20181017145313 59 9 0.0 0.0 0.00 0.00 0.00 44
20181017145301 60 9 0.0 0.0 0.00 0.00 0.00 44
20181017145236 58 9 0.0 0.0 0.00 0.00 0.00 45
20181017145224 60 9 0.0 0.0 0.00 0.00 0.00 44
20181017145158 58 9 0.0 0.0 0.00 0.00 0.00 45
20181017145146 60 9 0.0 0.0 0.00 0.00 0.00 44
20181017145119 59 9 0.0 0.0 0.00 0.00 0.00 44
20181017145104 60 9 0.0 0.0 0.00 0.00 0.00 44
20181017145047 58 9 0.0 0.0 0.00 0.00 0.00 44
20181017145032 60 9 0.0 0.0 0.00 0.00 0.00 44
20181017145014 58 9 0.0 0.0 0.00 0.00 0.00 44
20181017144957 60 9 0.0 0.0 0.00 0.00 0.00 44
20181017144939 59 9 0.0 0.0 0.00 0.00 0.00 43
20181017144922 60 9 0.0 0.0 0.00 0.00 0.00 44
20181017144905 58 9 0.0 0.0 0.00 0.00 0.00 45
20181017144828 58 9 0.0 0.0 0.00 0.00 0.00 45
20181017144750 58 9 0.0 0.0 0.00 0.00 0.00 45
20181017144740 60 9 0.0 0.0 0.00 0.00 0.00 44
20181017144708 58 9 0.0 0.0 0.00 0.00 0.00 45
20181017144624 58 9 0.0 0.0 0.00 0.00 0.00 44
20181017144539 58 9 0.0 0.0 0.00 0.00 0.00 45
20181017144450 58 9 0.0 0.0 0.00 0.00 0.00 45
20181017144359 58 9 0.0 0.0 0.00 0.00 0.00 45
20181017144304 59 9 0.0 0.0 0.00 0.00 0.00 43
20181017144138 59 9 0.0 0.0 0.00 0.00 0.00 44
20181017144106 58 9 0.0 0.0 0.00 0.00 0.00 45
20181017144034 58 9 0.0 0.0 0.00 0.00 0.00 45
20181017144002 58 9 0.0 0.0 0.00 0.00 0.00 45
20181017143929 59 9 0.0 0.0 0.00 0.00 0.00 43
20181017143854 58 9 0.0 0.0 0.00 0.00 0.00 45
20181017143819 58 9 0.0 0.0 0.00 0.00 0.00 45
20181017143744 58 9 0.0 0.0 0.00 0.00 0.00 45
20181017143705 58 9 0.0 0.0 0.00 0.00 0.00 44
20181017143625 58 9 0.0 0.0 0.00 0.00 0.00 44
20181017143544 59 9 0.0 0.0 0.00 0.00 0.00 43
20181017143503 58 9 0.0 0.0 0.00 0.00 0.00 45
20181017143419 59 9 0.0 0.0 0.00 0.00 0.00 43
20181017143336 58 9 0.0 0.0 0.00 0.00 0.00 44
20181017143251 58 9 0.0 0.0 0.00 0.00 0.00 44
20181017143225 58 9 0.0 0.0 0.00 0.00 0.00 45
20181017143204 59 9 0.0 0.0 0.00 0.00 0.00 44
20181017143117 59 9 0.0 0.0 0.00 0.00 0.00 43
20181017143029 59 9 0.0 0.0 0.00 0.00 0.00 43
20181017142939 59 9 0.0 0.0 0.00 0.00 0.00 44
20181017142847 58 9 0.0 0.0 0.00 0.00 0.00 44
20181017142756 58 9 0.0 0.0 0.00 0.00 0.00 44
20181017142704 59 9 0.0 0.0 0.00 0.00 0.00 43
20181017142619 58 9 0.0 0.0 0.00 0.00 0.00 44
20181017142611 59 9 0.0 0.0 0.00 0.00 0.00 43
20181017142516 59 9 0.0 0.0 0.00 0.00 0.00 43
20181017142421 59 9 0.0 0.0 0.00 0.00 0.00 44
20181017142325 59 9 0.0 0.0 0.00 0.00 0.00 43
20181017142316 60 9 0.0 0.0 0.00 0.00 0.00 44
20181017142226 59 9 0.0 0.0 0.00 0.00 0.00 44
20181017142127 59 9 0.0 0.0 0.00 0.00 0.00 44
20181017142025 59 9 0.0 0.0 0.00 0.00 0.00 44
20181017142013 59 9 0.0 0.0 0.00 0.00 0.00 43
20181017141924 59 9 0.0 0.0 0.00 0.00 0.00 44
20181017141821 59 9 0.0 0.0 0.00 0.00 0.00 44
20181017141709 59 9 0.0 0.0 0.00 0.00 0.00 44
20181017141409 60 9 0.0 0.0 0.00 0.00 0.00 45
20181017140500 59 9 0.0 3.0 0.00 0.00 0.00 43
20181017135247 56 85 0.0 0.0 0.00 0.00 0.00 48
20181017134641 55 85 0.0 0.0 0.00 0.00 0.00
20181017134421 56 85 0.0 0.0 0.00 0.00 0.00
20181017133217 57 85 0.0 0.0 0.00 0.00 0.00
20181017132815 57 85 0.0 0.0 0.00 0.00 0.00
20181017132011 58 85 0.0 0.0 0.00 0.00 0.00
20181017131609 59 85 0.0 0.0 0.00 0.00 0.00
20181017131208 59 85 0.0 0.0 0.00 0.00 0.00
20181017130806 60 85 0.0 0.0 0.00 0.00 0.00
20181017130405 61 85 0.0 0.0 0.00 0.00 0.00
20181017123553 62 54 8.0 10.0 0.00 0.00 0.00
20181017122750 56 87 0.0 0.0 0.00 0.00 0.00 44
20181017122348 56 87 0.0 0.0 0.00 0.00 0.00 46
20181017121945 56 87 0.0 0.0 0.00 0.00 0.00 47
20181017121545 56 87 0.0 0.0 0.00 0.00 0.00
20181017121141 56 87 0.0 0.0 0.00 0.00 0.00
20181017120338 57 87 0.0 0.0 0.00 0.00 0.00
20181017115937 57 87 0.0 0.0 0.00 0.00 0.00
20181017115535 57 87 0.0 0.0 0.00 0.00 0.00
20181017115133 58 87 0.0 0.0 0.00 0.00 0.00
20181017114730 59 87 0.0 0.0 0.00 0.00 0.00
20181017114330 59 87 0.0 0.0 0.00 0.00 0.00
20181017113526 59 87 0.0 2.0 0.00 0.00 0.00
20181017111921 59 78 0.0 0.0 0.00 0.00 0.00
20181017111618 59 78 0.0 0.0 0.00 0.00 0.00
20181017111517 59 78 0.0 0.0 0.00 0.00 0.00
20181017110714 62 78 0.0 0.0 0.00 0.00 0.00
20181017110343 64 78 0.0 2.0 0.00 0.00 0.00
20181017110312 64 78 0.0 2.0 0.00 0.00 0.00
20181017105948 65 78 0.0 6.0 0.00 0.00 0.00
20181017105911 65 78 0.0 6.0 0.00 0.00 0.00
20181017105107 66 19 4.0 7.0 0.00 0.00 0.00
20181017104803 66 358 5.0 6.0 0.00 0.00 0.00
20181017104706 66 358 5.0 6.0 0.00 0.00 0.00
20181017104304 65 35 6.0 6.0 0.00 0.00 0.00
20181017103901 64 23 5.0 5.0 0.00 0.00 0.00
20181017102658 63 82 0.0 0.0 0.00 0.00 0.00
20181017102329 62 82 0.0 1.0 0.00 0.00 0.00
20181017102256 62 82 0.0 1.0 0.00 0.00 0.00
20181017101939 62 61 0.0 5.0 0.00 0.00 0.00
20181017101853 62 61 0.0 5.0 0.00 0.00 0.00
20181017101135 59 15 0.0 3.0 0.00 0.00 0.00 37
20181017101050 59 15 0.0 3.0 0.00 0.00 0.00 37
20181017100649 59 324 0.0 0.0 0.00 0.00 0.00 45
20181017100323 59 324 0.0 0.0 0.00 0.00 0.00 41
20181017100247 59 324 0.0 0.0 0.00 0.00 0.00 41
20181017095533 59 324 0.0 0.0 0.00 0.00 0.00 42
20181017095443 59 324 0.0 0.0 0.00 0.00 0.00 42
20181017094752 59 324 0.0 0.0 0.00 0.00 0.00 42
20181017094640 59 324 0.0 0.0 0.00 0.00 0.00 42
20181017094333 59 324 0.0 0.0 0.00 0.00 0.00 43
20181017094238 59 324 0.0 0.0 0.00 0.00 0.00 43
20181017093836 58 324 0.0 0.0 0.00 0.00 0.00 43
20181017093434 58 324 0.0 0.0 0.00 0.00 0.00 45
20181017093110 57 324 0.0 0.0 0.00 0.00 0.00 45
20181017093032 57 324 0.0 0.0 0.00 0.00 0.00 45
20181017092716 57 104 0.0 0.0 0.00 0.00 0.00 46
20181017092631 57 104 0.0 0.0 0.00 0.00 0.00 46
20181017091827 57 104 0.0 0.0 0.00 0.00 0.00 46
20181017091427 56 104 0.0 0.0 0.00 0.00 0.00 45
20181017091024 57 104 0.0 3.0 0.00 0.00 0.00 47
20181017090708 57 104 0.0 3.0 0.00 0.00 0.00 48
20181017090621 57 104 0.0 3.0 0.00 0.00 0.00 48
20181017090308 57 113 0.0 0.0 0.00 0.00 0.00 46
20181017090220 57 113 0.0 0.0 0.00 0.00 0.00 46
20181017085418 57 113 0.0 0.0 0.00 0.00 0.00 46
20181017084614 56 113 0.0 0.0 0.00 0.00 0.00 48
20181017083911 56 113 0.0 0.0 0.00 0.00 0.00 48
20181017083809 56 113 0.0 0.0 0.00 0.00 0.00 48
20181017083054 56 113 0.0 0.0 0.00 0.00 0.00 48
20181017083006 56 113 0.0 0.0 0.00 0.00 0.00 48
20181017082604 56 113 0.0 0.0 0.00 0.00 0.00 50
20181017082205 56 113 0.0 0.0 0.00 0.00 0.00 50
20181017081122 56 113 0.0 0.0 0.00 0.00 0.00 48
20181017080956 56 113 0.0 0.0 0.00 0.00 0.00 48
20181017080556 57 113 0.0 0.0 0.00 0.00 0.00 48
20181017075751 57 113 0.0 0.0 0.00 0.00 0.00 48
20181017074949 56 113 0.0 0.0 0.00 0.00 0.00 49
20181017074620 56 113 0.0 0.0 0.00 0.00 0.00 51
20181017074546 56 113 0.0 0.0 0.00 0.00 0.00 51
20181017072939 57 113 0.0 0.0 0.00 0.00 0.00
20181017071332 58 113 0.0 2.0 0.00 0.00 0.00
20181017070932 58 97 1.0 4.0 0.00 0.00 0.00
20181017070128 58 90 4.0 3.0 0.00 0.00 0.00
20181017064519 59 108 0.0 0.0 0.00 0.00 0.00
20181017064118 59 108 0.0 0.0 0.00 0.00 0.00
20181017063716 60 108 0.0 0.0 0.00 0.00 0.00
20181017062511 60 108 0.0 0.0 0.00 0.00 0.00
20181017062110 60 108 0.0 0.0 0.00 0.00 0.00
20181017061709 60 108 0.0 2.0 0.00 0.00 0.00
20181017061343 59 108 0.0 5.0 0.00 0.00 0.00
20181017061308 59 108 0.0 5.0 0.00 0.00 0.00
20181017060904 59 88 0.0 0.0 0.00 0.00 0.00
20181017060504 59 88 0.0 0.0 0.00 0.00 0.00
20181017060102 58 88 0.0 0.0 0.00 0.00 0.00
20181017054944 58 88 0.0 0.0 0.00 0.00 0.00
20181017054856 58 88 0.0 0.0 0.00 0.00 0.00
20181017054454 59 88 0.0 0.0 0.00 0.00 0.00
20181017054128 59 88 0.0 0.0 0.00 0.00 0.00
20181017054053 59 88 0.0 0.0 0.00 0.00 0.00
20181017053740 59 88 0.0 5.0 0.00 0.00 0.00
20181017053650 59 88 0.0 5.0 0.00 0.00 0.00
20181017052934 61 80 0.0 0.0 0.00 0.00 0.00
20181017052847 61 80 0.0 0.0 0.00 0.00 0.00
20181017052123 62 33 0.0 0.0 0.00 0.00 0.00
20181017052044 62 33 0.0 0.0 0.00 0.00 0.00
20181017051642 62 33 0.0 6.0 0.00 0.00 0.00
20181017051240 62 327 2.0 6.0 0.00 0.00 0.00
20181017050941 62 26 1.0 7.0 0.00 0.00 0.00
20181017050839 62 26 1.0 7.0 0.00 0.00 0.00
20181017050126 63 291 0.0 5.0 0.00 0.00 0.00
20181017050037 63 291 0.0 5.0 0.00 0.00 0.00
20181017045306 63 113 4.0 2.0 0.00 0.00 0.00
20181017045232 63 113 4.0 2.0 0.00 0.00 0.00
20181017044430 63 199 0.0 3.0 0.00 0.00 0.00
20181017044100 63 12 2.0 5.0 0.00 0.00 0.00
20181017044026 63 12 2.0 5.0 0.00 0.00 0.00
20181017043709 63 67 0.0 5.0 0.00 0.00 0.00
20181017043625 63 67 0.0 5.0 0.00 0.00 0.00
20181017043222 64 108 0.0 4.0 0.00 0.00 0.00
20181017042858 63 229 0.0 3.0 0.00 0.00 0.00
20181017042822 63 229 0.0 3.0 0.00 0.00 0.00
20181017042051 64 61 0.0 6.0 0.00 0.00 0.00
20181017042018 64 61 0.0 6.0 0.00 0.00 0.00
20181017041259 63 16 0.0 1.0 0.00 0.00 0.00
20181017041216 63 16 0.0 1.0 0.00 0.00 0.00
20181017040909 64 312 0.0 4.0 0.00 0.00 0.00
20181017040813 64 312 0.0 4.0 0.00 0.00 0.00
20181017040412 64 123 0.0 6.0 0.00 0.00 0.00
20181017040009 65 116 0.0 10.0 0.00 0.00 0.00
20181017035206 64 60 4.0 9.0 0.00 0.00 0.00
20181017034840 63 64 3.0 6.0 0.00 0.00 0.00
20181017034805 63 64 3.0 6.0 0.00 0.00 0.00
20181017033159 63 75 0.0 0.0 0.00 0.00 0.00
20181017032452 64 75 0.0 0.0 0.00 0.00 0.00
20181017032355 64 75 0.0 0.0 0.00 0.00 0.00
20181017032043 65 75 0.0 1.0 0.00 0.00 0.00
20181017031952 65 75 0.0 1.0 0.00 0.00 0.00
20181017031624 66 75 0.0 1.0 0.00 0.00 0.00
20181017031551 66 75 0.0 1.0 0.00 0.00 0.00
20181017030417 68 236 0.0 8.0 0.00 0.00 0.00
20181017030345 68 236 0.0 8.0 0.00 0.00 0.00
20181017025945 67 172 1.0 12.0 0.00 0.00 0.00
20181017025623 68 319 0.0 12.0 0.00 0.00 0.00
20181017025542 68 319 0.0 12.0 0.00 0.00 0.00
20181017025141 68 67 7.0 12.0 0.00 0.00 0.00
20181017024739 69 37 8.0 16.0 0.00 0.00 0.00
20181017024410 68 54 14.0 13.0 0.00 0.00 0.00
20181017024337 68 54 14.0 13.0 0.00 0.00 0.00
20181017023535 69 61 6.0 12.0 0.00 0.00 0.00
20181017022407 70 49 9.0 13.0 0.00 0.00 0.00
20181017022328 70 49 9.0 13.0 0.00 0.00 0.00
20181017022035 70 78 9.0 10.0 0.00 0.00 0.00
20181017021927 70 78 9.0 10.0 0.00 0.00 0.00
20181017021124 71 63 8.0 10.0 0.00 0.00 0.00
20181017020722 70 64 8.0 9.0 0.00 0.00 0.00
20181017020007 65 68 6.0 3.0 0.00 0.00 0.00 44
20181017015918 65 68 6.0 3.0 0.00 0.00 0.00 44
20181017015550 64 11 0.0 0.0 0.00 0.00 0.00 43
20181017015517 64 11 0.0 0.0 0.00 0.00 0.00 43
20181017015147 65 11 0.0 0.0 0.00 0.00 0.00 46
20181017015116 65 11 0.0 0.0 0.00 0.00 0.00 46
20181017014713 65 11 0.0 0.0 0.00 0.00 0.00 47
20181017014348 65 11 0.0 0.0 0.00 0.00 0.00 49
20181017014310 65 11 0.0 0.0 0.00 0.00 0.00 49
20181017014003 66 11 0.0 0.0 0.00 0.00 0.00
20181017013910 66 11 0.0 0.0 0.00 0.00 0.00
20181017013113 69 11 0.0 0.0 0.00 0.00 0.00
20181017013037 69 11 0.0 0.0 0.00 0.00 0.00
20181017012836 68 11 0.0 0.0 0.00 0.00 0.00
20181017012734 68 11 0.0 0.0 0.00 0.00 0.00
20181017012508 69 11 0.0 0.0 0.00 0.00 0.00
20181017012431 69 11 0.0 0.0 0.00 0.00 0.00
20181017012128 70 11 0.0 0.0 0.00 0.00 0.00
20181017011908 71 11 0.0 0.0 0.00 0.00 0.00
20181017011826 71 11 0.0 0.0 0.00 0.00 0.00
20181017011559 72 11 0.0 0.0 0.00 0.00 0.00
20181017011523 72 11 0.0 0.0 0.00 0.00 0.00
20181017011220 73 11 0.0 0.0 0.00 0.00 0.00
20181017010314 75 11 0.0 0.0 0.00 0.00 0.00
20181017010050 75 11 0.0 4.0 0.00 0.00 0.00
20181017010008 75 11 0.0 4.0 0.00 0.00 0.00
20181017005706 77 11 0.0 4.0 0.00 0.00 0.00 37
20181017005436 76 11 0.0 3.0 0.00 0.00 0.00 38
20181017005405 76 11 0.0 3.0 0.00 0.00 0.00 38
20181017004801 78 262 0.0 7.0 0.00 0.00 0.00 35
20181017004155 79 284 5.0 9.0 0.00 0.00 0.00 32
20181017003852 79 306 5.0 14.0 0.00 0.00 0.00 22
20181017003247 79 47 8.0 9.0 0.00 0.00 0.00 17
20181017002946 79 66 4.0 7.0 0.00 0.00 0.00 17
20181017002341 80 113 0.0 11.0 0.00 0.00 0.00 17
20181017002037 80 286 0.0 4.0 0.00 0.00 0.00 17
20181017001735 81 312 0.0 4.0 0.00 0.00 0.00 17
20181017001433 80 52 0.0 5.0 0.00 0.00 0.00 17
20181017000828 80 299 3.0 5.0 0.00 0.00 0.00 17
20181017000526 80 122 1.0 7.0 0.00 0.00 0.00 17
20181017000223 80 208 0.0 7.0 0.00 0.00 0.00 17
20181016235922 80 129 5.0 13.0 0.00 0.00 0.00 17
20181016235619 80 98 1.0 13.0 0.00 0.00 0.00 17
20181016235319 80 43 10.0 13.0 0.00 0.00 0.00 17
20181016235016 80 329 7.0 11.0 0.00 0.00 0.00 17
20181016234715 79 265 10.0 11.0 0.00 0.00 0.00 17
20181016234413 80 80 5.0 7.0 0.00 0.00 0.00 17
20181016234111 79 57 5.0 7.0 0.00 0.00 0.00 17
20181016233809 80 94 3.0 8.0 0.00 0.00 0.00 17
20181016233205 79 210 3.0 18.0 0.00 0.00 0.00 17
20181016232258 80 63 2.0 9.0 0.00 0.00 0.00 17
20181016231654 80 295 7.0 16.0 0.00 0.00 0.00 17
20181016231050 80 348 14.0 17.0 0.00 0.00 0.00 17
20181016230444 80 319 6.0 11.0 0.00 0.00 0.00 17
20181016230142 81 286 0.0 11.0 0.00 0.00 0.00 16
20181016225838 81 109 0.0 6.0 0.00 0.00 0.00 17
20181016224629 81 309 12.0 11.0 0.00 0.00 0.00 17
20181016222813 80 296 0.0 11.0 0.00 0.00 0.00 17
20181016222512 80 348 0.0 12.0 0.00 0.00 0.00
20181016221908 80 246 6.0 19.0 0.00 0.00 0.00 16
20181016221605 80 49 7.0 19.0 0.00 0.00 0.00 17
20181016220959 80 77 10.0 13.0 0.00 0.00 0.00 16
20181016220355 80 120 6.0 18.0 0.00 0.00 0.00 16
20181016220054 80 303 0.0 18.0 0.00 0.00 0.00 17
20181016215448 80 312 9.0 21.0 0.00 0.00 0.00 17
20181016215144 80 323 6.0 21.0 0.00 0.00 0.00 17
20181016214538 81 120 19.0 16.0 0.00 0.00 0.00 16
20181016213934 80 338 7.0 15.0 0.00 0.00 0.00 16
20181016213631 80 71 8.0 15.0 0.00 0.00 0.00 17
20181016213025 80 80 10.0 22.0 0.00 0.00 0.00
20181016212117 80 288 7.0 27.0 0.00 0.00 0.00
20181016211813 80 98 2.0 14.0 0.00 0.00 0.00
20181016211209 80 341 0.0 8.0 0.00 0.00 0.00
20181016210906 80 178 4.0 12.0 0.00 0.00 0.00
20181016210301 79 225 9.0 19.0 0.00 0.00 0.00 18
20181016205959 78 184 7.0 22.0 0.00 0.00 0.00 17
20181016205430 81 108 7.0 10.0 0.00 0.00 0.00 18
20181016205353 81 108 7.0 10.0 0.00 0.00 0.00 18
20181016204831 82 327 0.0 9.0 0.00 0.00 0.00 19
20181016204749 82 327 0.0 9.0 0.00 0.00 0.00 19
20181016204446 80 319 2.0 11.0 0.00 0.00 0.00 19
20181016204144 80 326 0.0 11.0 0.00 0.00 0.00 19
20181016203842 81 199 6.0 11.0 0.00 0.00 0.00 18
20181016203626 81 333 3.0 10.0 0.00 0.00 0.00 19
20181016203539 81 333 3.0 10.0 0.00 0.00 0.00 19
20181016202934 80 285 0.0 10.0 0.00 0.00 0.00 20
20181016202846 78 262 1.0 10.0 0.00 0.00 0.00 21
20181016202816 80 265 6.0 6.0 0.00 0.00 0.00 20
20181016202745 78 262 1.0 10.0 0.00 0.00 0.00 21
20181016202715 80 265 6.0 6.0 0.00 0.00 0.00 20
20181016202644 78 262 1.0 10.0 0.00 0.00 0.00 21
20181016202614 80 265 6.0 6.0 0.00 0.00 0.00 20
20181016202544 80 265 6.0 6.0 0.00 0.00 0.00 20
20181016202511 80 265 6.0 6.0 0.00 0.00 0.00 20
20181016202405 80 265 6.0 6.0 0.00 0.00 0.00 20
20181016202332 80 265 6.0 6.0 0.00 0.00 0.00 20
20181016202330 80 223 5.0 10.0 0.00 0.00 0.00 20
20181016202255 80 265 6.0 6.0 0.00 0.00 0.00 20
20181016202218 80 265 6.0 6.0 0.00 0.00 0.00 20
20181016202145 78 262 1.0 10.0 0.00 0.00 0.00 21
20181016202113 80 265 6.0 6.0 0.00 0.00 0.00 20
20181016202034 80 265 6.0 6.0 0.00 0.00 0.00 20
20181016202029 81 260 4.0 11.0 0.00 0.00 0.00 19
20181016201951 78 262 1.0 10.0 0.00 0.00 0.00 21
20181016201920 80 265 6.0 6.0 0.00 0.00 0.00 20
20181016201848 80 265 6.0 6.0 0.00 0.00 0.00 20
20181016201816 80 265 6.0 6.0 0.00 0.00 0.00 20
20181016201814 78 262 1.0 10.0 0.00 0.00 0.00 21
20181016201739 80 265 6.0 6.0 0.00 0.00 0.00 20
20181016201657 80 265 6.0 6.0 0.00 0.00 0.00 20
20181016201616 80 265 6.0 6.0 0.00 0.00 0.00 20
20181016201533 80 265 6.0 6.0 0.00 0.00 0.00 20
20181016201444 80 265 6.0 6.0 0.00 0.00 0.00 20
20181016201353 80 265 6.0 6.0 0.00 0.00 0.00 20
20181016201301 80 265 6.0 6.0 0.00 0.00 0.00 20
20181016201205 80 265 6.0 6.0 0.00 0.00 0.00 20
20181016201122 80 265 6.0 6.0 0.00 0.00 0.00 20
20181016201104 78 262 1.0 10.0 0.00 0.00 0.00 21
20181016201032 78 262 1.0 10.0 0.00 0.00 0.00 21
20181016201000 78 262 1.0 10.0 0.00 0.00 0.00 21
20181016200926 78 262 1.0 10.0 0.00 0.00 0.00 21
20181016200851 78 262 1.0 10.0 0.00 0.00 0.00 21
20181016200821 79 295 1.0 9.0 0.00 0.00 0.00 21
20181016200814 78 262 1.0 10.0 0.00 0.00 0.00 21
20181016200736 78 262 1.0 10.0 0.00 0.00 0.00 21
20181016200658 78 262 1.0 10.0 0.00 0.00 0.00 21
20181016200618 78 262 1.0 10.0 0.00 0.00 0.00 21
20181016200536 78 262 1.0 10.0 0.00 0.00 0.00 21
20181016200519 79 142 0.0 8.0 0.00 0.00 0.00 21
20181016200454 78 262 1.0 10.0 0.00 0.00 0.00 21
20181016200409 78 262 1.0 10.0 0.00 0.00 0.00 21
20181016200322 78 262 1.0 10.0 0.00 0.00 0.00 21
20181016200236 78 262 1.0 10.0 0.00 0.00 0.00 21
20181016200147 78 262 1.0 10.0 0.00 0.00 0.00 21
20181016200057 78 262 1.0 10.0 0.00 0.00 0.00 21
20181016200007 78 262 1.0 10.0 0.00 0.00 0.00 21
20181016195916 78 262 1.0 10.0 0.00 0.00 0.00 21
20181016195913 78 9 0.0 13.0 0.00 0.00 0.00 22
20181016195821 78 262 1.0 10.0 0.00 0.00 0.00 21
20181016195726 78 262 1.0 10.0 0.00 0.00 0.00 21
20181016195630 78 262 1.0 10.0 0.00 0.00 0.00 21
20181016195611 77 42 5.0 13.0 0.00 0.00 0.00 21
20181016195530 78 262 1.0 10.0 0.00 0.00 0.00 21
20181016195430 78 262 1.0 10.0 0.00 0.00 0.00 21
20181016195329 78 262 1.0 10.0 0.00 0.00 0.00 21
20181016195224 78 262 1.0 10.0 0.00 0.00 0.00 21
20181016195118 78 262 1.0 10.0 0.00 0.00 0.00 21
20181016195010 78 262 1.0 10.0 0.00 0.00 0.00 21
20181016195005 78 95 1.0 9.0 0.00 0.00 0.00 21
20181016194901 78 262 1.0 10.0 0.00 0.00 0.00 21
20181016194749 78 262 1.0 10.0 0.00 0.00 0.00 21
20181016194703 78 73 7.0 9.0 0.00 0.00 0.00 22
20181016194636 78 262 1.0 10.0 0.00 0.00 0.00 21
20181016194520 78 262 1.0 10.0 0.00 0.00 0.00 21
20181016194401 78 262 1.0 10.0 0.00 0.00 0.00 21
20181016193453 77 209 6.0 10.0 0.00 0.00 0.00 23
20181016192245 76 296 6.0 9.0 0.00 0.00 0.00 24
20181016191944 75 63 5.0 12.0 0.00 0.00 0.00 24
20181016191037 75 115 4.0 16.0 0.00 0.00 0.00 24
20181016184314 76 120 12.0 13.0 0.00 0.00 0.00 23
20181016183709 77 70 0.0 18.0 0.00 0.00 0.00 20
20181016183105 77 170 8.0 13.0 0.00 0.00 0.00 19
20181016182459 77 94 6.0 18.0 0.00 0.00 0.00 19